Terminal Aerodrome Forecast
Issued by NWS

Home | Current Version | Previous Version | Text Only | Print | Product List | Glossary On
Versions: 1 2 3 4 5 6 7 8 9 10 11 12 13 14 15 16 17 18 19 20 21 22 23 24 25 26 27 28 29 30 31 32 33
000
FTUS44 KSJT 230500
TAFSOA
TAF
KSOA 230520Z 2306/2406 14011KT P6SM BKN025
     FM230700 14009KT P6SM BKN015
     FM230800 15010KT 6SM BR OVC008
     FM231000 16011KT 3SM -DZ BR OVC004
     FM231600 18012KT 6SM -SHRA BR OVC007
     FM232000 18012KT P6SM VCTS BKN020CB=

USA.gov is the U.S. government's official web portal to all federal, state and local government web resources and services.